This is the latest recevied weather packets stored in our database for station/object KF0FSA. If no packets are shown the sender has not sent any weather packets the latest 10 day(s).
| Time | Temp. | Humidity | Pressure | Rain* | Wind** | Luminosity | Snow |
|---|---|---|---|---|---|---|---|
| 1777732982 | 12.22° C | 43% | 964.8 hPa | 0 mm | - | 529 W/m² | - |
| 1777732680 | 12.22° C | 44% | 964.8 hPa | 0 mm | - | 513 W/m² | - |
| 1777732376 | 11.67° C | 44% | 964.9 hPa | 0 mm | - | 501 W/m² | - |
| 1777732077 | 11.67° C | 44% | 964.9 hPa | 0 mm | - | 483 W/m² | - |
| 1777731776 | 11.11° C | 46% | 964.9 hPa | 0 mm | - | 468 W/m² | - |
| 1777731475 | 11.11° C | 45% | 965 hPa | 0 mm | - | 431 W/m² | - |
| 1777731174 | 10.56° C | 47% | 965 hPa | 0 mm | - | 408 W/m² | - |
| 1777730873 | 10.56° C | 48% | 965 hPa | 0 mm | - | 412 W/m² | - |
| 1777730697 | 10.56° C | 48% | 965 hPa | 0 mm | - | 401 W/m² | - |
| 1777730397 | 10° C | 48% | 965.1 hPa | 0 mm | - | 391 W/m² | - |
| 1777729975 | 9.44° C | 49% | 965 hPa | 0 mm | - | 374 W/m² | - |
| 1777729671 | 9.44° C | 50% | 965 hPa | 0 mm | - | 357 W/m² | - |
| 1777729495 | 8.89° C | 51% | 965.1 hPa | 0 mm | - | 340 W/m² | - |
| 1777729071 | 8.33° C | 52% | 965.1 hPa | 0 mm | - | 325 W/m² | - |
| 1777728895 | 7.78° C | 55% | 965.2 hPa | 0 mm | - | 308 W/m² | - |
| 1777728471 | 7.78° C | 54% | 965.2 hPa | 0 mm | - | 291 W/m² | - |
| 1777728293 | 7.78° C | 54% | 965.3 hPa | 0 mm | - | 276 W/m² | - |
| 1777727868 | 7.22° C | 53% | 965.3 hPa | 0 mm | - | 259 W/m² | - |
| 1777727568 | 7.22° C | 53% | 965.4 hPa | 0 mm | - | 242 W/m² | - |
| 1777727281 | 6.67° C | 53% | 965.4 hPa | 0 mm | - | 228 W/m² | - |
| 1777726971 | 6.67° C | 54% | 965.4 hPa | 0 mm | - | 212 W/m² | - |
| 1777726669 | 6.11° C | 56% | 965.5 hPa | 0 mm | - | 197 W/m² | - |
| 1777726368 | 6.11° C | 56% | 965.5 hPa | 0 mm | - | 182 W/m² | - |
| 1777726068 | 5.56° C | 56% | 965.5 hPa | 0 mm | - | 166 W/m² | - |
| 1777725768 | 5.56° C | 57% | 965.4 hPa | 0 mm | - | 153 W/m² | - |
* Rain latest hour (hover to see other rain measurements)
** Current wind speed in m/s (hover to see current wind gust speed)